Overview Statistics Trail Chart Weather Telemetry Raw packets
 

This is the latest recevied weather packets stored in our database for station/object Kirchdorf. If no packets are shown the sender has not sent any weather packets the latest 10 day(s).

<< 13 14 15 16 17 18 19 >>
Time Temp. Humidity Pressure Rain* Wind** Luminosity Snow
1787895130 18.33° C 95% 1010.3 hPa 0 mm - - -
1787893329 17.78° C 94% 1010.1 hPa 0 mm - - -
1787891530 17.78° C 94% 1009.8 hPa 0 mm - - -
1787889733 17.78° C 94% 1009.7 hPa 0 mm - - -
1787887929 18.33° C 94% 1009.9 hPa 0 mm - - -
1787886129 18.33° C 93% 1010.7 hPa 0 mm - - -
1787884330 18.33° C 93% 1010.3 hPa 0 mm - - -
1787882530 18.33° C 92% 1009.9 hPa 0 mm - - -
1787880729 18.33° C 91% 1010.1 hPa 0 mm - - -
1787878929 18.89° C 90% 1009.9 hPa 0 mm - - -
1787877131 19.44° C 90% 1009.9 hPa 0 mm - - -
1787875331 20° C 89% 1010.1 hPa 0 mm - - -
1787873530 20° C 88% 1010.5 hPa 0 mm - - -
1787871732 20.56° C 87% 1010.7 hPa 0 mm - - -
1787869931 21.11° C 84% 1010.7 hPa 0 mm - - -
1787868132 21.67° C 83% 1011 hPa 0 mm - - -
1787866332 22.22° C 80% 1010.8 hPa 0 mm - - -
1787864531 22.78° C 78% 1011 hPa 0 mm - - -
1787862731 23.33° C 76% 1011.3 hPa 0 mm - - -
1787860931 23.89° C 75% 1011.2 hPa 0 mm - - -
1787859131 25° C 72% 1011.7 hPa 0 mm - - -
1787857331 25.56° C 70% 1011.4 hPa 0 mm - - -
1787855530 26.67° C 68% 1011.3 hPa 0 mm - - -
1787853731 27.22° C 67% 1011.4 hPa 0 mm - - -
1787851930 27.78° C 66% 1011.5 hPa 0 mm - - -

* Rain since midnight (hover to see other rain measurements)
** Current wind speed in m/s (hover to see current wind gust speed)